This is the latest recevied weather packets stored in our database for station/object IZ3LCH-13. If no packets are shown the sender has not sent any weather packets the latest 10 day(s).
| Time | Temp. | Humidity | Pressure | Rain* | Wind** | Luminosity | Snow |
|---|---|---|---|---|---|---|---|
| 1777721703 | 23.89° C | 34% | 1023.2 hPa | 0 mm | - | - | - |
| 1777721403 | 23.33° C | 38% | 1023.5 hPa | 0 mm | - | - | - |
| 1777721103 | 23.33° C | 36% | 1023.5 hPa | 0 mm | - | - | - |
| 1777720803 | 23.33° C | 35% | 1023.8 hPa | 0 mm | - | - | - |
| 1777720503 | 23.33° C | 33% | 1023.6 hPa | 0 mm | - | - | - |
| 1777720203 | 23.33° C | 36% | 1023.7 hPa | 0 mm | - | - | - |
| 1777719903 | 23.33° C | 34% | 1023.9 hPa | 0 mm | - | - | - |
| 1777719603 | 23.33° C | 35% | 1023.7 hPa | 0 mm | - | - | - |
| 1777719303 | 23.33° C | 35% | 1024 hPa | 0 mm | - | - | - |
| 1777719003 | 22.78° C | 36% | 1024.1 hPa | 0 mm | - | - | - |
| 1777718703 | 23.33° C | 33% | 1024 hPa | 0 mm | - | - | - |
| 1777718103 | 23.33° C | 34% | 1024.2 hPa | 0 mm | - | - | - |
| 1777717803 | 22.78° C | 35% | 1024.2 hPa | 0 mm | - | - | - |
| 1777717503 | 22.22° C | 35% | 1024.5 hPa | 0 mm | - | - | - |
| 1777717203 | 22.22° C | 33% | 1024.5 hPa | 0 mm | - | - | - |
| 1777716904 | 22.22° C | 34% | 1024.3 hPa | 0 mm | - | - | - |
| 1777716603 | 22.22° C | 35% | 1024.6 hPa | 0 mm | - | - | - |
| 1777716303 | 22.78° C | 34% | 1024.5 hPa | 0 mm | - | - | - |
| 1777716003 | 22.78° C | 36% | 1024.8 hPa | 0 mm | - | - | - |
| 1777715703 | 22.22° C | 35% | 1024.8 hPa | 0 mm | - | - | - |
| 1777715403 | 22.22° C | 37% | 1024.7 hPa | 0 mm | - | - | - |
| 1777715103 | 22.22° C | 37% | 1024.7 hPa | 0 mm | - | - | - |
| 1777714803 | 22.78° C | 38% | 1024.8 hPa | 0 mm | - | - | - |
| 1777714503 | 22.22° C | 39% | 1024.8 hPa | 0 mm | - | - | - |
| 1777714203 | 22.22° C | 40% | 1024.9 hPa | 0 mm | - | - | - |
* Rain latest hour (hover to see other rain measurements)
** Current wind speed in m/s (hover to see current wind gust speed)